{"data":{"norad_id":67839,"intl_designator":"2026-033U","name":"STARLINK-36652","alt_names":[],"object_type":"PAYLOAD","status":"ACTIVE","operator":null,"country":"US","launch_date":"2026-02-16","launch_site_code":"AFETR","launch_vehicle":null,"mission":null,"orbit_class":"UNKNOWN","rcs_meters":null,"size_class":null,"mass_kg":null,"dimensions":null,"purposes":["comms"],"wikipedia_slug":null,"has_3d_model":false,"image_url":null,"decayed_at":null,"tle_current":{"epoch":"2026-09-19T16:40:09.095808Z","epoch_age_seconds":136114,"freshness":"FRESH","line1":"1 67839U 26033U   26262.69454972  .00009171  00000+0  34230-3 0  9993","line2":"2 67839  43.0040 251.5033 0001848 279.9128  80.1515 15.27586270 34341","mean_motion":15.2758627,"eccentricity":0.0001848,"inclination_deg":43.004,"raan_deg":251.5033,"arg_perigee_deg":279.9128,"mean_anomaly_deg":80.1515,"bstar":0.0003423,"rev_number":3434,"period_min":94.266361794414,"perigee_km":481.76237774724,"apogee_km":484.29826518926,"semimajor_km":6861.1673214683,"source":"CELESTRAK","updated_at":"2026-09-20T09:00:43.670776Z"}}}